This is the latest recevied weather packets stored in our database for station/object IT9CNT. If no packets are shown the sender has not sent any weather packets the latest 1 day(s).
| Time | Temp. | Humidity | Pressure | Rain* | Wind** | Luminosity | Snow |
|---|---|---|---|---|---|---|---|
| 1778000763 | 17.78° C | 81% | 1012.9 hPa | 0 mm | 0.89 m/s, 178° | - | - |
| 1778000703 | 17.22° C | 81% | 1012.8 hPa | 0 mm | 0.89 m/s, 180° | - | - |
| 1778000643 | 17.22° C | 81% | 1012.8 hPa | 0 mm | 0.89 m/s, 178° | - | - |
| 1778000583 | 17.22° C | 81% | 1012.9 hPa | 0 mm | 0.89 m/s, 178° | - | - |
| 1778000523 | 17.22° C | 81% | 1012.7 hPa | 0 mm | 0.89 m/s, 173° | - | - |
| 1778000463 | 17.78° C | 81% | 1012.8 hPa | 0 mm | 0.89 m/s, 179° | - | - |
| 1778000403 | 17.78° C | 81% | 1012.8 hPa | 0 mm | 0.89 m/s, 175° | - | - |
| 1778000343 | 17.78° C | 81% | 1012.8 hPa | 0 mm | 0.89 m/s, 176° | - | - |
| 1778000283 | 17.78° C | 81% | 1012.7 hPa | 0 mm | 0.89 m/s, 178° | - | - |
| 1778000228 | 17.22° C | 81% | 1012.8 hPa | 0 mm | 1.34 m/s, 181° | - | - |
| 1778000163 | 17.78° C | 81% | 1012.7 hPa | 0 mm | 1.34 m/s, 177° | - | - |
| 1778000103 | 17.22° C | 81% | 1013 hPa | 0 mm | 1.34 m/s, 175° | - | - |
| 1778000043 | 17.78° C | 81% | 1012.8 hPa | 0 mm | 1.79 m/s, 171° | - | - |
| 1777999983 | 17.78° C | 81% | 1012.8 hPa | 0 mm | 1.34 m/s, 171° | - | - |
| 1777999923 | 17.78° C | 82% | 1012.8 hPa | 0 mm | 1.34 m/s, 173° | - | - |
| 1777999863 | 17.78° C | 82% | 1012.9 hPa | 0 mm | 1.34 m/s, 171° | - | - |
| 1777999804 | 17.78° C | 82% | 1012.9 hPa | 0 mm | 1.34 m/s, 172° | - | - |
| 1777999743 | 17.78° C | 82% | 1012.9 hPa | 0 mm | 0.89 m/s, 171° | - | - |
| 1777999683 | 17.78° C | 82% | 1012.9 hPa | 0 mm | 0.89 m/s, 162° | - | - |
| 1777999624 | 17.78° C | 82% | 1013.1 hPa | 0 mm | 0.89 m/s, 151° | - | - |
| 1777999564 | 17.78° C | 82% | 1012.7 hPa | 0 mm | 0.89 m/s, 147° | - | - |
| 1777999504 | 17.78° C | 81% | 1012.9 hPa | 0 mm | 0.89 m/s, 150° | - | - |
| 1777999444 | 17.78° C | 81% | 1013.1 hPa | 0 mm | 0.89 m/s, 158° | - | - |
| 1777999383 | 17.78° C | 81% | 1013 hPa | 0 mm | 0.89 m/s, 157° | - | - |
| 1777999323 | 17.78° C | 81% | 1012.7 hPa | 0 mm | 0.89 m/s, 159° | - | - |
* Rain latest hour (hover to see other rain measurements)
** Current wind speed in m/s (hover to see current wind gust speed)